Time,TemperatureF,DewpointF,PressureIn,WindDirection,WindDirectionDegrees,WindSpeedMPH,WindSpeedGustMPH,Humidity,HourlyPrecipIn,Conditions,Clouds,dailyrainin,SoftwareType,DateUTC
2013-01-17 00:00:00,70.2,67.4,30.04,SE,141,0.0,4.0,91,0.00,,---,0.00,VWS V14.01,2013-01-17 05:00:00,
2013-01-17 00:02:00,70.2,67.4,30.04,SSE,160,1.0,2.0,91,0.00,,---,0.00,VWS V14.01,2013-01-17 05:02:00,
2013-01-17 00:03:00,70.2,67.4,30.04,SW,215,0.0,2.0,91,0.00,,---,0.00,VWS V14.01,2013-01-17 05:03:00,
2013-01-17 00:08:00,70.2,67.4,30.04,SSW,207,3.0,3.0,91,0.00,,---,0.00,VWS V14.01,2013-01-17 05:08:00,
2013-01-17 00:13:00,70.2,67.4,30.04,SSE,163,0.0,3.0,91,0.00,,---,0.00,VWS V14.01,2013-01-17 05:13:00,
2013-01-17 00:18:00,70.2,67.8,30.04,South,187,0.0,3.0,92,0.00,,---,0.00,VWS V14.01,2013-01-17 05:18:00,
2013-01-17 00:24:00,70.1,67.7,30.04,SSW,205,0.0,3.0,92,0.00,,---,0.00,VWS V14.01,2013-01-17 05:24:00,
2013-01-17 00:29:00,70.3,67.9,30.04,SSE,162,3.0,5.0,92,0.00,,---,0.00,VWS V14.01,2013-01-17 05:29:00,
2013-01-17 00:34:00,70.4,68.0,30.04,SSW,195,1.0,3.0,92,0.00,,---,0.00,VWS V14.01,2013-01-17 05:34:00,
2013-01-17 00:39:00,70.5,67.8,30.03,South,172,1.0,6.0,91,0.00,,---,0.00,VWS V14.01,2013-01-17 05:39:00,
2013-01-17 00:44:00,70.5,67.8,30.03,SSW,204,2.0,6.0,91,0.00,,---,0.00,VWS V14.01,2013-01-17 05:44:00,
2013-01-17 00:49:00,70.4,67.7,30.03,SSE,165,0.0,6.0,91,0.00,,---,0.00,VWS V14.01,2013-01-17 05:49:00,
2013-01-17 00:54:00,70.3,67.6,30.03,SSE,153,1.0,6.0,91,0.00,,---,0.00,VWS V14.01,2013-01-17 05:54:00,
2013-01-17 00:59:00,70.3,67.9,30.03,SSW,210,1.0,6.0,92,0.00,,---,0.00,VWS V14.01,2013-01-17 05:59:00,
2013-01-17 01:04:00,70.2,67.8,30.03,SSW,194,0.0,6.0,92,0.00,,---,0.00,VWS V14.01,2013-01-17 06:04:00,
2013-01-17 01:09:00,70.1,67.7,30.03,South,172,0.0,6.0,92,0.00,,---,0.00,VWS V14.01,2013-01-17 06:09:00,
2013-01-17 01:14:00,70.0,67.6,30.03,SSW,194,2.0,6.0,92,0.00,,---,0.00,VWS V14.01,2013-01-17 06:14:00,
2013-01-17 01:19:00,69.9,67.5,30.03,SW,219,2.0,6.0,92,0.00,,---,0.00,VWS V14.01,2013-01-17 06:19:00,
2013-01-17 01:24:00,69.8,67.4,30.03,South,173,3.0,6.0,92,0.00,,---,0.00,VWS V14.01,2013-01-17 06:24:00,
2013-01-17 01:29:00,69.8,67.7,30.03,South,191,2.0,6.0,93,0.00,,---,0.00,VWS V14.01,2013-01-17 06:29:00,
2013-01-17 01:35:00,69.8,67.7,30.03,SW,218,1.0,5.0,93,0.00,,---,0.00,VWS V14.01,2013-01-17 06:35:00,
2013-01-17 01:40:00,69.7,67.6,30.03,SSE,149,1.0,5.0,93,0.00,,---,0.00,VWS V14.01,2013-01-17 06:40:00,
2013-01-17 01:45:00,69.7,67.6,30.04,SE,131,1.0,5.0,93,0.00,,---,0.00,VWS V14.01,2013-01-17 06:45:00,
2013-01-17 01:50:00,69.6,67.5,30.03,SSE,165,2.0,5.0,93,0.00,,---,0.00,VWS V14.01,2013-01-17 06:50:00,
2013-01-17 01:55:00,69.7,67.6,30.03,SSW,208,0.0,5.0,93,0.00,,---,0.00,VWS V14.01,2013-01-17 06:55:00,
2013-01-17 02:00:00,69.7,67.6,30.03,SSW,208,1.0,6.0,93,0.00,,---,0.00,VWS V14.01,2013-01-17 07:00:00,
2013-01-17 02:05:00,69.6,67.5,30.03,SSW,198,1.0,3.0,93,0.00,,---,0.00,VWS V14.01,2013-01-17 07:05:00,
2013-01-17 02:10:00,69.5,67.4,30.03,SSE,160,2.0,5.0,93,0.00,,---,0.00,VWS V14.01,2013-01-17 07:10:00,
2013-01-17 02:15:00,69.4,67.6,30.03,SSW,201,2.0,5.0,94,0.00,,---,0.00,VWS V14.01,2013-01-17 07:15:00,
2013-01-17 02:20:00,69.3,67.5,30.03,SSW,208,0.0,5.0,94,0.00,,---,0.00,VWS V14.01,2013-01-17 07:20:00,
2013-01-17 02:25:00,69.2,67.4,30.03,WNW,288,0.0,5.0,94,0.00,,---,0.00,VWS V14.01,2013-01-17 07:25:00,
2013-01-17 02:30:00,69.1,67.3,30.03,SW,221,0.0,5.0,94,0.00,,---,0.00,VWS V14.01,2013-01-17 07:30:00,
2013-01-17 02:35:00,69.0,67.2,30.03,SW,221,0.0,2.0,94,0.00,,---,0.00,VWS V14.01,2013-01-17 07:35:00,
2013-01-17 02:40:00,69.0,67.5,30.03,South,183,0.0,3.0,95,0.00,,---,0.00,VWS V14.01,2013-01-17 07:40:00,
2013-01-17 02:45:00,69.0,67.5,30.03,SW,226,2.0,3.0,95,0.00,,---,0.00,VWS V14.01,2013-01-17 07:45:00,
2013-01-17 02:50:00,69.0,67.2,30.03,SSE,157,0.0,5.0,94,0.00,,---,0.00,VWS V14.01,2013-01-17 07:50:00,
2013-01-17 02:55:00,69.0,67.2,30.03,South,184,1.0,5.0,94,0.00,,---,0.00,VWS V14.01,2013-01-17 07:55:00,
2013-01-17 03:00:00,69.0,67.2,30.03,SSE,165,0.0,5.0,94,0.00,,---,0.00,VWS V14.01,2013-01-17 08:00:00,
2013-01-17 03:05:00,68.9,66.8,30.03,West,281,0.0,2.0,93,0.00,,---,0.00,VWS V14.01,2013-01-17 08:05:00,
2013-01-17 03:10:00,68.9,66.8,30.02,SW,222,3.0,3.0,93,0.00,,---,0.00,VWS V14.01,2013-01-17 08:10:00,
2013-01-17 03:15:00,68.8,66.4,30.02,WSW,242,3.0,4.0,92,0.00,,---,0.00,VWS V14.01,2013-01-17 08:15:00,
2013-01-17 03:20:00,68.8,66.4,30.02,SW,224,0.0,4.0,92,0.00,,---,0.00,VWS V14.01,2013-01-17 08:20:00,
2013-01-17 03:25:00,68.8,66.1,30.02,West,266,0.0,4.0,91,0.00,,---,0.00,VWS V14.01,2013-01-17 08:25:00,
2013-01-17 03:31:00,68.8,66.1,30.02,SW,235,0.0,4.0,91,0.00,,---,0.00,VWS V14.01,2013-01-17 08:31:00,
2013-01-17 03:36:00,68.7,66.0,30.02,West,270,0.0,1.0,91,0.00,,---,0.00,VWS V14.01,2013-01-17 08:36:00,
2013-01-17 03:41:00,68.6,65.9,30.02,WSW,256,0.0,2.0,91,0.00,,---,0.00,VWS V14.01,2013-01-17 08:41:00,
2013-01-17 03:46:00,68.6,65.9,30.02,South,177,0.0,3.0,91,0.00,,---,0.00,VWS V14.01,2013-01-17 08:46:00,
2013-01-17 03:51:00,68.5,65.5,30.03,SSE,149,0.0,3.0,90,0.00,,---,0.00,VWS V14.01,2013-01-17 08:51:00,
2013-01-17 03:56:00,68.5,65.8,30.03,SE,145,1.0,3.0,91,0.00,,---,0.00,VWS V14.01,2013-01-17 08:56:00,
2013-01-17 04:01:00,68.6,65.6,30.03,South,177,0.0,3.0,90,0.00,,---,0.00,VWS V14.01,2013-01-17 09:01:00,
2013-01-17 04:06:00,68.7,65.3,30.03,SW,218,0.0,1.0,89,0.00,,---,0.00,VWS V14.01,2013-01-17 09:06:00,
2013-01-17 04:11:00,68.9,65.5,30.03,WSW,252,2.0,2.0,89,0.00,,---,0.00,VWS V14.01,2013-01-17 09:11:00,
2013-01-17 04:16:00,68.8,65.1,30.03,SSW,204,0.0,2.0,88,0.00,,---,0.00,VWS V14.01,2013-01-17 09:16:00,
2013-01-17 04:21:00,68.7,65.3,30.03,SSW,205,0.0,2.0,89,0.00,,---,0.00,VWS V14.01,2013-01-17 09:21:00,
2013-01-17 04:26:00,68.5,65.5,30.03,SSW,206,0.0,2.0,90,0.00,,---,0.00,VWS V14.01,2013-01-17 09:26:00,
2013-01-17 04:31:00,68.3,65.3,30.03,SSW,205,0.0,2.0,90,0.00,,---,0.00,VWS V14.01,2013-01-17 09:31:00,
2013-01-17 04:36:00,68.1,65.1,30.03,SSW,205,0.0,0.0,90,0.00,,---,0.00,VWS V14.01,2013-01-17 09:36:00,
2013-01-17 04:41:00,68.0,65.3,30.03,SSW,206,0.0,0.0,91,0.00,,---,0.00,VWS V14.01,2013-01-17 09:41:00,
2013-01-17 04:47:00,67.9,65.2,30.03,SSW,205,0.0,0.0,91,0.00,,---,0.00,VWS V14.01,2013-01-17 09:47:00,
2013-01-17 04:52:00,67.9,65.5,30.03,SSW,205,0.0,0.0,92,0.00,,---,0.00,VWS V14.01,2013-01-17 09:52:00,
2013-01-17 04:57:00,67.8,65.4,30.03,SSW,205,0.0,0.0,92,0.00,,---,0.00,VWS V14.01,2013-01-17 09:57:00,
2013-01-17 05:02:00,67.7,65.3,30.03,SSW,205,0.0,0.0,92,0.00,,---,0.00,VWS V14.01,2013-01-17 10:02:00,
2013-01-17 05:07:00,67.7,65.3,30.02,SSW,205,0.0,0.0,92,0.00,,---,0.00,VWS V14.01,2013-01-17 10:07:00,
2013-01-17 05:12:00,67.5,65.1,30.02,SSW,206,0.0,0.0,92,0.00,,---,0.00,VWS V14.01,2013-01-17 10:12:00,
2013-01-17 05:17:00,67.4,65.0,30.03,SSW,205,0.0,0.0,92,0.00,,---,0.00,VWS V14.01,2013-01-17 10:17:00,
2013-01-17 05:22:00,67.1,64.7,30.03,SSW,205,0.0,0.0,92,0.00,,---,0.00,VWS V14.01,2013-01-17 10:22:00,
2013-01-17 05:27:00,66.8,64.7,30.02,SSW,205,0.0,0.0,93,0.00,,---,0.00,VWS V14.01,2013-01-17 10:27:00,
2013-01-17 05:32:00,66.6,64.5,30.03,SSW,205,0.0,0.0,93,0.00,,---,0.00,VWS V14.01,2013-01-17 10:32:00,
2013-01-17 05:37:00,66.2,64.1,30.03,SSW,205,0.0,0.0,93,0.00,,---,0.00,VWS V14.01,2013-01-17 10:37:00,
2013-01-17 05:42:00,66.0,64.2,30.03,SSW,205,0.0,0.0,94,0.00,,---,0.00,VWS V14.01,2013-01-17 10:42:00,
2013-01-17 05:47:00,65.8,64.0,30.03,SSW,205,0.0,0.0,94,0.00,,---,0.00,VWS V14.01,2013-01-17 10:47:00,
2013-01-17 05:52:00,65.6,63.8,30.02,SSW,205,0.0,0.0,94,0.00,,---,0.00,VWS V14.01,2013-01-17 10:52:00,
2013-01-17 05:57:00,65.4,63.6,30.02,SSW,205,0.0,0.0,94,0.00,,---,0.00,VWS V14.01,2013-01-17 10:57:00,
2013-01-17 06:03:00,65.2,63.7,30.02,SSW,205,0.0,0.0,95,0.00,,---,0.00,VWS V14.01,2013-01-17 11:03:00,
2013-01-17 06:08:00,65.0,63.5,30.03,SSW,205,0.0,0.0,95,0.00,,---,0.00,VWS V14.01,2013-01-17 11:08:00,
2013-01-17 06:13:00,64.9,63.4,30.03,SSW,205,0.0,0.0,95,0.00,,---,0.00,VWS V14.01,2013-01-17 11:13:00,
2013-01-17 06:18:00,64.6,63.1,30.03,SSW,205,0.0,0.0,95,0.00,,---,0.00,VWS V14.01,2013-01-17 11:18:00,
2013-01-17 06:23:00,64.5,63.0,30.03,SSW,205,0.0,0.0,95,0.00,,---,0.00,VWS V14.01,2013-01-17 11:23:00,
2013-01-17 06:28:00,64.2,62.7,30.03,SSW,205,0.0,0.0,95,0.00,,---,0.00,VWS V14.01,2013-01-17 11:28:00,
2013-01-17 06:33:00,64.1,62.6,30.04,SSW,205,0.0,0.0,95,0.00,,---,0.00,VWS V14.01,2013-01-17 11:33:00,
2013-01-17 06:38:00,64.0,62.8,30.04,SSW,205,0.0,0.0,96,0.00,,---,0.00,VWS V14.01,2013-01-17 11:38:00,
2013-01-17 06:43:00,63.8,62.6,30.04,SSW,205,0.0,0.0,96,0.00,,---,0.00,VWS V14.01,2013-01-17 11:43:00,
2013-01-17 06:48:00,63.7,62.5,30.04,SSW,205,0.0,0.0,96,0.00,,---,0.00,VWS V14.01,2013-01-17 11:48:00,
2013-01-17 06:53:00,63.6,62.4,30.04,SSW,205,0.0,0.0,96,0.00,,---,0.00,VWS V14.01,2013-01-17 11:53:00,
2013-01-17 06:58:00,63.6,62.4,30.04,SSW,205,0.0,0.0,96,0.00,,---,0.00,VWS V14.01,2013-01-17 11:58:00,
2013-01-17 07:03:00,63.5,62.3,30.04,SSW,206,0.0,0.0,96,0.00,,---,0.00,VWS V14.01,2013-01-17 12:03:00,
2013-01-17 07:08:00,63.3,62.1,30.04,SSW,205,0.0,0.0,96,0.00,,---,0.00,VWS V14.01,2013-01-17 12:08:00,
2013-01-17 07:13:00,63.2,62.0,30.04,SSW,205,0.0,0.0,96,0.00,,---,0.00,VWS V14.01,2013-01-17 12:13:00,
2013-01-17 07:18:00,62.9,61.8,30.04,SSW,205,0.0,0.0,96,0.00,,---,0.00,VWS V14.01,2013-01-17 12:18:00,
2013-01-17 07:23:00,62.8,61.7,30.05,SSW,205,0.0,0.0,96,0.00,,---,0.00,VWS V14.01,2013-01-17 12:23:00,
2013-01-17 07:28:00,62.8,61.7,30.05,SSW,205,0.0,0.0,96,0.00,,---,0.00,VWS V14.01,2013-01-17 12:28:00,
2013-01-17 07:33:00,62.7,61.5,30.05,SSW,205,0.0,0.0,96,0.00,,---,0.00,VWS V14.01,2013-01-17 12:33:00,
2013-01-17 07:39:00,62.6,61.7,30.05,SSW,205,0.0,0.0,97,0.00,,---,0.00,VWS V14.01,2013-01-17 12:39:00,
2013-01-17 07:44:00,62.8,61.9,30.05,SSW,205,0.0,0.0,97,0.00,,---,0.00,VWS V14.01,2013-01-17 12:44:00,
2013-01-17 07:49:00,62.8,61.9,30.05,SSW,205,0.0,0.0,97,0.00,,---,0.00,VWS V14.01,2013-01-17 12:49:00,
2013-01-17 07:54:00,62.9,62.0,30.05,SSW,205,0.0,0.0,97,0.00,,---,0.00,VWS V14.01,2013-01-17 12:54:00,
2013-01-17 07:59:00,63.0,62.1,30.05,SSW,205,0.0,0.0,97,0.00,,---,0.00,VWS V14.01,2013-01-17 12:59:00,
2013-01-17 08:04:00,63.1,62.2,30.06,SSW,205,0.0,0.0,97,0.00,,---,0.00,VWS V14.01,2013-01-17 13:04:00,
2013-01-17 08:09:00,63.3,62.4,30.06,SSW,205,0.0,0.0,97,0.00,,---,0.00,VWS V14.01,2013-01-17 13:09:00,
2013-01-17 08:14:00,63.4,62.5,30.06,SSW,208,0.0,0.0,97,0.00,,---,0.00,VWS V14.01,2013-01-17 13:14:00,
2013-01-17 08:19:00,63.6,62.7,30.06,SSW,208,0.0,0.0,97,0.00,,---,0.00,VWS V14.01,2013-01-17 13:19:00,
2013-01-17 08:24:00,63.8,62.9,30.06,SSW,208,0.0,0.0,97,0.00,,---,0.00,VWS V14.01,2013-01-17 13:24:00,
2013-01-17 08:29:00,64.1,63.5,30.06,SSW,208,0.0,0.0,98,0.00,,---,0.00,VWS V14.01,2013-01-17 13:29:00,
2013-01-17 08:35:00,64.3,63.7,30.06,SSW,194,0.0,1.0,98,0.00,,---,0.00,VWS V14.01,2013-01-17 13:35:00,
2013-01-17 08:40:00,64.9,64.3,30.06,South,187,0.0,1.0,98,0.00,,---,0.00,VWS V14.01,2013-01-17 13:40:00,
2013-01-17 08:45:00,65.5,64.9,30.06,South,191,0.0,1.0,98,0.00,,---,0.00,VWS V14.01,2013-01-17 13:45:00,
2013-01-17 08:50:00,66.1,65.5,30.06,South,183,1.0,2.0,98,0.00,,---,0.00,VWS V14.01,2013-01-17 13:50:00,
2013-01-17 08:55:00,66.8,65.9,30.06,SSE,160,0.0,5.0,97,0.00,,---,0.00,VWS V14.01,2013-01-17 13:55:00,
2013-01-17 09:00:00,67.4,66.2,30.06,SSW,204,0.0,5.0,96,0.00,,---,0.00,VWS V14.01,2013-01-17 14:00:00,
2013-01-17 09:05:00,68.1,66.9,30.06,SW,225,0.0,2.0,96,0.00,,---,0.00,VWS V14.01,2013-01-17 14:05:00,
2013-01-17 09:10:00,68.8,67.3,30.06,SSW,207,1.0,2.0,95,0.00,,---,0.00,VWS V14.01,2013-01-17 14:10:00,
2013-01-17 09:15:00,69.4,67.9,30.06,SE,141,0.0,2.0,95,0.00,,---,0.00,VWS V14.01,2013-01-17 14:15:00,
2013-01-17 09:20:00,69.8,68.0,30.07,WSW,242,1.0,4.0,94,0.00,,---,0.00,VWS V14.01,2013-01-17 14:20:00,
2013-01-17 09:25:00,70.1,68.3,30.07,WNW,301,1.0,4.0,94,0.00,,---,0.00,VWS V14.01,2013-01-17 14:25:00,
2013-01-17 09:30:00,70.7,68.9,30.07,SSE,155,1.0,6.0,94,0.00,,---,0.00,VWS V14.01,2013-01-17 14:30:00,
2013-01-17 09:35:00,71.4,69.3,30.07,SSW,197,1.0,4.0,93,0.00,,---,0.00,VWS V14.01,2013-01-17 14:35:00,
2013-01-17 09:40:00,71.6,69.2,30.07,SSW,200,3.0,8.0,92,0.00,,---,0.00,VWS V14.01,2013-01-17 14:40:00,
2013-01-17 09:45:00,72.1,69.3,30.06,WSW,239,1.0,8.0,91,0.00,,---,0.00,VWS V14.01,2013-01-17 14:45:00,
2013-01-17 09:50:00,72.8,70.0,30.06,SE,140,2.0,8.0,91,0.00,,---,0.00,VWS V14.01,2013-01-17 14:50:00,
2013-01-17 09:56:00,73.7,70.3,30.06,SW,233,1.0,10.0,89,0.00,,---,0.00,VWS V14.01,2013-01-17 14:56:00,
2013-01-17 10:01:00,74.3,70.2,30.06,WSW,246,4.0,10.0,87,0.00,,---,0.00,VWS V14.01,2013-01-17 15:01:00,
2013-01-17 10:06:00,74.5,70.4,30.05,SE,138,2.0,3.0,87,0.00,,---,0.00,VWS V14.01,2013-01-17 15:06:00,
2013-01-17 10:11:00,75.0,70.2,30.06,SE,135,0.0,8.0,85,0.00,,---,0.00,VWS V14.01,2013-01-17 15:11:00,
2013-01-17 10:16:00,75.5,70.0,30.06,SE,144,3.0,8.0,83,0.00,,---,0.00,VWS V14.01,2013-01-17 15:16:00,
2013-01-17 10:21:00,75.9,70.4,30.05,SSW,211,1.0,8.0,83,0.00,,---,0.00,VWS V14.01,2013-01-17 15:21:00,
2013-01-17 10:26:00,76.3,70.4,30.05,SSE,149,3.0,10.0,82,0.00,,---,0.00,VWS V14.01,2013-01-17 15:26:00,
2013-01-17 10:31:00,76.6,70.3,30.05,SSW,207,3.0,10.0,81,0.00,,---,0.00,VWS V14.01,2013-01-17 15:31:00,
2013-01-17 10:36:00,76.6,70.3,30.05,SW,232,3.0,10.0,81,0.00,,---,0.00,VWS V14.01,2013-01-17 15:36:00,
2013-01-17 10:42:00,76.8,70.5,30.04,West,260,7.0,10.0,81,0.00,,---,0.00,VWS V14.01,2013-01-17 15:42:00,
2013-01-17 10:47:00,77.0,70.0,30.04,SW,221,3.0,10.0,79,0.00,,---,0.00,VWS V14.01,2013-01-17 15:47:00,
2013-01-17 10:52:00,76.8,69.8,30.04,SW,232,4.0,10.0,79,0.00,,---,0.00,VWS V14.01,2013-01-17 15:52:00,
2013-01-17 10:57:00,76.7,69.7,30.04,SW,214,3.0,10.0,79,0.00,,---,0.00,VWS V14.01,2013-01-17 15:57:00,
2013-01-17 11:02:00,76.6,70.0,30.03,SE,144,2.0,2.0,80,0.00,,---,0.00,VWS V14.01,2013-01-17 16:02:00,
2013-01-17 11:07:00,77.1,69.7,30.03,South,191,1.0,6.0,78,0.00,,---,0.00,VWS V14.01,2013-01-17 16:07:00,
2013-01-17 11:12:00,77.4,69.6,30.03,SSW,204,4.0,8.0,77,0.00,,---,0.00,VWS V14.01,2013-01-17 16:12:00,
2013-01-17 11:17:00,77.2,69.4,30.03,South,180,2.0,10.0,77,0.00,,---,0.00,VWS V14.01,2013-01-17 16:17:00,
2013-01-17 11:22:00,77.1,69.3,30.03,WSW,253,1.0,10.0,77,0.00,,---,0.00,VWS V14.01,2013-01-17 16:22:00,
2013-01-17 11:28:00,76.8,69.4,30.02,SW,235,2.0,10.0,78,0.00,,---,0.00,VWS V14.01,2013-01-17 16:28:00,
2013-01-17 11:33:00,76.8,69.8,30.02,South,185,2.0,5.0,79,0.00,,---,0.00,VWS V14.01,2013-01-17 16:33:00,
2013-01-17 11:38:00,77.5,70.1,30.02,WSW,249,10.0,10.0,78,0.00,,---,0.00,VWS V14.01,2013-01-17 16:38:00,
2013-01-17 11:43:00,78.4,69.8,30.01,SW,224,5.0,10.0,75,0.00,,---,0.00,VWS V14.01,2013-01-17 16:43:00,
2013-01-17 11:48:00,78.7,69.3,30.01,East,81,1.0,10.0,73,0.00,,---,0.00,VWS V14.01,2013-01-17 16:48:00,
2013-01-17 11:53:00,79.0,69.2,30.01,WSW,249,3.0,10.0,72,0.00,,---,0.00,VWS V14.01,2013-01-17 16:53:00,
2013-01-17 11:58:00,78.7,68.9,30.01,WSW,250,5.0,10.0,72,0.00,,---,0.00,VWS V14.01,2013-01-17 16:58:00,
2013-01-17 12:03:00,79.1,69.3,30.00,SSE,155,3.0,7.0,72,0.00,,---,0.00,VWS V14.01,2013-01-17 17:03:00,
2013-01-17 12:08:00,79.4,68.8,30.00,SW,225,4.0,12.0,70,0.00,,---,0.00,VWS V14.01,2013-01-17 17:08:00,
2013-01-17 12:13:00,79.5,68.4,30.00,NW,325,1.0,12.0,69,0.00,,---,0.00,VWS V14.01,2013-01-17 17:13:00,
2013-01-17 12:18:00,79.3,68.7,29.99,SSW,194,1.0,12.0,70,0.00,,---,0.00,VWS V14.01,2013-01-17 17:18:00,
2013-01-17 12:23:00,79.8,68.3,29.99,SE,146,6.0,12.0,68,0.00,,---,0.00,VWS V14.01,2013-01-17 17:23:00,
2013-01-17 12:28:00,80.3,68.8,29.99,South,170,1.0,12.0,68,0.00,,---,0.00,VWS V14.01,2013-01-17 17:28:00,
2013-01-17 12:33:00,81.0,69.0,29.98,ESE,119,4.0,5.0,67,0.00,,---,0.00,VWS V14.01,2013-01-17 17:33:00,
2013-01-17 12:38:00,81.2,67.9,29.98,West,281,2.0,10.0,64,0.00,,---,0.00,VWS V14.01,2013-01-17 17:38:00,
2013-01-17 12:43:00,81.4,68.5,29.98,WNW,302,1.0,10.0,65,0.00,,---,0.00,VWS V14.01,2013-01-17 17:43:00,
2013-01-17 12:48:00,80.9,67.6,29.97,SSW,210,3.0,12.0,64,0.00,,---,0.00,VWS V14.01,2013-01-17 17:48:00,
2013-01-17 12:53:00,80.5,68.1,29.97,WSW,256,3.0,12.0,66,0.00,,---,0.00,VWS V14.01,2013-01-17 17:53:00,
2013-01-17 12:58:00,80.0,67.2,29.97,SE,129,3.0,12.0,65,0.00,,---,0.00,VWS V14.01,2013-01-17 17:58:00,
2013-01-17 13:03:00,80.1,68.2,29.97,WSW,245,6.0,10.0,67,0.00,,---,0.00,VWS V14.01,2013-01-17 18:03:00,
2013-01-17 13:08:00,80.5,68.1,29.96,South,169,3.0,12.0,66,0.00,,---,0.00,VWS V14.01,2013-01-17 18:08:00,
2013-01-17 13:13:00,80.7,68.3,29.95,ESE,105,3.0,12.0,66,0.00,,---,0.00,VWS V14.01,2013-01-17 18:13:00,
2013-01-17 13:18:00,80.9,67.6,29.95,SW,222,6.0,12.0,64,0.00,,---,0.00,VWS V14.01,2013-01-17 18:18:00,
2013-01-17 13:24:00,81.4,68.5,29.95,WNW,284,3.0,12.0,65,0.00,,---,0.00,VWS V14.01,2013-01-17 18:24:00,
2013-01-17 13:29:00,81.9,67.1,29.95,SSE,154,2.0,12.0,61,0.00,,---,0.00,VWS V14.01,2013-01-17 18:29:00,
2013-01-17 13:34:00,81.8,67.1,29.94,WNW,283,1.0,7.0,61,0.00,,---,0.00,VWS V14.01,2013-01-17 18:34:00,
2013-01-17 13:39:00,82.0,67.2,29.94,SW,231,6.0,10.0,61,0.00,,---,0.00,VWS V14.01,2013-01-17 18:39:00,
2013-01-17 13:44:00,82.1,66.4,29.94,WSW,238,9.0,17.0,59,0.00,,---,0.00,VWS V14.01,2013-01-17 18:44:00,
2013-01-17 13:49:00,82.3,66.6,29.94,SSE,160,2.0,17.0,59,0.00,,---,0.00,VWS V14.01,2013-01-17 18:49:00,
2013-01-17 13:54:00,82.2,66.5,29.93,SSW,195,4.0,17.0,59,0.00,,---,0.00,VWS V14.01,2013-01-17 18:54:00,
2013-01-17 13:59:00,82.5,66.7,29.93,SSE,153,2.0,17.0,59,0.00,,---,0.00,VWS V14.01,2013-01-17 18:59:00,
2013-01-17 14:04:00,82.7,64.9,29.92,NW,307,4.0,5.0,55,0.00,,---,0.00,VWS V14.01,2013-01-17 19:04:00,
2013-01-17 14:09:00,82.6,64.8,29.92,SE,139,1.0,8.0,55,0.00,,---,0.00,VWS V14.01,2013-01-17 19:09:00,
2013-01-17 14:14:00,82.8,65.0,29.92,SE,126,4.0,14.0,55,0.00,,---,0.00,VWS V14.01,2013-01-17 19:14:00,
2013-01-17 14:19:00,83.2,64.3,29.92,WSW,240,3.0,14.0,53,0.00,,---,0.00,VWS V14.01,2013-01-17 19:19:00,
2013-01-17 14:24:00,83.3,63.3,29.92,SSE,155,4.0,14.0,51,0.00,,---,0.00,VWS V14.01,2013-01-17 19:24:00,
2013-01-17 14:29:00,83.0,63.6,29.92,WSW,238,3.0,14.0,52,0.00,,---,0.00,VWS V14.01,2013-01-17 19:29:00,
2013-01-17 14:34:00,82.5,63.1,29.91,West,262,1.0,12.0,52,0.00,,---,0.00,VWS V14.01,2013-01-17 19:34:00,
2013-01-17 14:39:00,82.2,63.9,29.91,NNW,328,1.0,12.0,54,0.00,,---,0.00,VWS V14.01,2013-01-17 19:39:00,
2013-01-17 14:44:00,82.0,64.3,29.91,East,98,1.0,12.0,55,0.00,,---,0.00,VWS V14.01,2013-01-17 19:44:00,
2013-01-17 14:49:00,81.7,64.5,29.91,SSW,198,1.0,12.0,56,0.00,,---,0.00,VWS V14.01,2013-01-17 19:49:00,
2013-01-17 14:54:00,81.4,64.2,29.92,SE,138,1.0,12.0,56,0.00,,---,0.00,VWS V14.01,2013-01-17 19:54:00,
2013-01-17 14:59:00,80.5,67.2,29.92,SSW,194,2.0,12.0,64,0.00,,---,0.00,VWS V14.01,2013-01-17 19:59:00,
2013-01-17 15:04:00,79.2,67.7,29.93,SSE,160,1.0,8.0,68,0.00,,---,0.00,VWS V14.01,2013-01-17 20:04:00,
2013-01-17 15:10:00,78.3,67.3,29.93,West,271,1.0,8.0,69,0.00,,---,0.00,VWS V14.01,2013-01-17 20:10:00,
2013-01-17 15:15:00,77.7,67.6,29.94,West,259,2.0,9.0,71,0.00,,---,0.00,VWS V14.01,2013-01-17 20:15:00,
2013-01-17 15:20:00,77.1,67.0,29.94,SW,233,3.0,9.0,71,0.00,,---,0.00,VWS V14.01,2013-01-17 20:20:00,
2013-01-17 15:25:00,76.5,66.4,29.94,SSW,192,4.0,12.0,71,0.00,,---,0.00,VWS V14.01,2013-01-17 20:25:00,
2013-01-17 15:30:00,75.8,66.5,29.94,NNW,348,3.0,13.0,73,0.00,,---,0.00,VWS V14.01,2013-01-17 20:30:00,
2013-01-17 15:35:00,75.4,66.2,29.95,West,276,1.0,6.0,73,0.00,,---,0.00,VWS V14.01,2013-01-17 20:35:00,
2013-01-17 15:40:00,75.1,65.9,29.95,North,8,5.0,10.0,73,0.00,,---,0.00,VWS V14.01,2013-01-17 20:40:00,
2013-01-17 15:45:00,74.5,65.3,29.95,SW,225,2.0,10.0,73,0.00,,---,0.00,VWS V14.01,2013-01-17 20:45:00,
2013-01-17 15:50:00,74.1,65.7,29.96,NE,44,1.0,10.0,75,0.00,,---,0.00,VWS V14.01,2013-01-17 20:50:00,
2013-01-17 15:55:00,74.0,65.2,29.96,WSW,253,4.0,10.0,74,0.00,,---,0.00,VWS V14.01,2013-01-17 20:55:00,
2013-01-17 16:00:00,73.5,65.1,29.96,SW,221,2.0,15.0,75,0.00,,---,0.00,VWS V14.01,2013-01-17 21:00:00,
2013-01-17 16:05:00,73.3,64.9,29.97,North,1,4.0,6.0,75,0.00,,---,0.00,VWS V14.01,2013-01-17 21:05:00,
2013-01-17 16:10:00,73.0,64.6,29.97,SSW,205,5.0,11.0,75,0.00,,---,0.00,VWS V14.01,2013-01-17 21:10:00,
2013-01-17 16:16:00,72.2,63.8,29.97,SW,217,1.0,11.0,75,0.00,,---,0.00,VWS V14.01,2013-01-17 21:16:00,
2013-01-17 16:21:00,71.2,62.5,29.98,NNE,32,1.0,15.0,74,0.00,,---,0.00,VWS V14.01,2013-01-17 21:21:00,
2013-01-17 16:26:00,70.3,62.4,29.98,WSW,240,1.0,15.0,76,0.00,,---,0.00,VWS V14.01,2013-01-17 21:26:00,
2013-01-17 16:31:00,69.8,61.9,29.98,WSW,242,2.0,15.0,76,0.00,,---,0.00,VWS V14.01,2013-01-17 21:31:00,
2013-01-17 16:36:00,69.1,61.6,29.99,West,274,7.0,9.0,77,0.00,,---,0.00,VWS V14.01,2013-01-17 21:36:00,
2013-01-17 16:41:00,68.0,60.9,29.99,ENE,73,7.0,9.0,78,0.00,,---,0.00,VWS V14.01,2013-01-17 21:41:00,
2013-01-17 16:46:00,67.2,60.1,30.00,North,354,3.0,9.0,78,0.00,,---,0.00,VWS V14.01,2013-01-17 21:46:00,
2013-01-17 16:51:00,66.6,59.9,30.00,NNW,335,3.0,10.0,79,0.00,,---,0.00,VWS V14.01,2013-01-17 21:51:00,
2013-01-17 16:56:00,66.3,60.0,30.00,West,274,0.0,10.0,80,0.00,,---,0.00,VWS V14.01,2013-01-17 21:56:00,
2013-01-17 17:01:00,65.8,59.8,30.01,ENE,75,3.0,10.0,81,0.00,,---,0.00,VWS V14.01,2013-01-17 22:01:00,
2013-01-17 17:07:00,65.1,58.1,30.01,WNW,298,2.0,11.0,78,0.00,,---,0.00,VWS V14.01,2013-01-17 22:07:00,
2013-01-17 17:12:00,64.5,57.8,30.01,NE,51,1.0,11.0,79,0.00,,---,0.00,VWS V14.01,2013-01-17 22:12:00,
2013-01-17 17:17:00,64.2,57.6,30.02,NNW,344,3.0,12.0,79,0.00,,---,0.00,VWS V14.01,2013-01-17 22:17:00,
2013-01-17 17:22:00,64.1,57.5,30.02,WSW,252,2.0,12.0,79,0.00,,---,0.00,VWS V14.01,2013-01-17 22:22:00,
2013-01-17 17:27:00,64.0,57.4,30.02,WNW,283,5.0,12.0,79,0.00,,---,0.00,VWS V14.01,2013-01-17 22:27:00,
2013-01-17 17:32:00,63.9,56.9,30.02,South,187,2.0,7.0,78,0.00,,---,0.00,VWS V14.01,2013-01-17 22:32:00,
2013-01-17 17:37:00,63.9,57.3,30.02,SW,233,4.0,8.0,79,0.00,,---,0.00,VWS V14.01,2013-01-17 22:37:00,
2013-01-17 17:42:00,63.8,57.2,30.02,WNW,301,0.0,8.0,79,0.00,,---,0.00,VWS V14.01,2013-01-17 22:42:00,
2013-01-17 17:47:00,63.7,57.1,30.03,NNW,332,1.0,9.0,79,0.00,,---,0.00,VWS V14.01,2013-01-17 22:47:00,
2013-01-17 17:52:00,63.6,56.6,30.03,East,101,1.0,9.0,78,0.00,,---,0.00,VWS V14.01,2013-01-17 22:52:00,
2013-01-17 18:05:00,63.0,55.3,30.03,WSW,239,3.0,3.0,76,0.00,,---,0.00,VWS V14.01,2013-01-17 23:05:00,
2013-01-17 18:10:00,62.8,55.5,30.03,West,261,2.0,11.0,77,0.00,,---,0.00,VWS V14.01,2013-01-17 23:10:00,
2013-01-17 18:15:00,62.6,55.7,30.04,SSW,210,2.0,11.0,78,0.00,,---,0.00,VWS V14.01,2013-01-17 23:15:00,
2013-01-17 18:20:00,62.3,55.4,30.04,West,271,3.0,11.0,78,0.00,,---,0.00,VWS V14.01,2013-01-17 23:20:00,
2013-01-17 18:25:00,62.2,55.6,30.04,WSW,248,1.0,11.0,79,0.00,,---,0.00,VWS V14.01,2013-01-17 23:25:00,
2013-01-17 18:30:00,61.9,55.0,30.04,WNW,295,1.0,11.0,78,0.00,,---,0.00,VWS V14.01,2013-01-17 23:30:00,
2013-01-17 18:35:00,61.7,54.8,30.04,NW,323,0.0,5.0,78,0.00,,---,0.00,VWS V14.01,2013-01-17 23:35:00,
2013-01-17 18:40:00,61.4,54.8,30.05,WSW,252,1.0,7.0,79,0.00,,---,0.00,VWS V14.01,2013-01-17 23:40:00,
2013-01-17 18:45:00,61.2,54.6,30.05,WNW,293,1.0,8.0,79,0.00,,---,0.00,VWS V14.01,2013-01-17 23:45:00,
2013-01-17 18:50:00,61.0,54.5,30.05,SW,217,1.0,8.0,79,0.00,,---,0.00,VWS V14.01,2013-01-17 23:50:00,
2013-01-17 18:55:00,60.9,54.3,30.05,NW,304,1.0,8.0,79,0.00,,---,0.00,VWS V14.01,2013-01-17 23:55:00,
2013-01-17 19:00:00,60.7,54.2,30.05,SW,221,0.0,8.0,79,0.00,,---,0.00,VWS V14.01,2013-01-18 00:00:00,
2013-01-17 19:05:00,60.6,54.4,30.05,North,8,0.0,3.0,80,0.00,,---,0.00,VWS V14.01,2013-01-18 00:05:00,
2013-01-17 19:10:00,60.5,54.3,30.05,West,276,0.0,10.0,80,0.00,,---,0.00,VWS V14.01,2013-01-18 00:10:00,
2013-01-17 19:15:00,60.4,54.2,30.05,WSW,257,5.0,10.0,80,0.00,,---,0.00,VWS V14.01,2013-01-18 00:15:00,
2013-01-17 19:20:00,60.3,54.1,30.06,West,277,6.0,10.0,80,0.00,,---,0.00,VWS V14.01,2013-01-18 00:20:00,
2013-01-17 19:25:00,60.2,54.0,30.06,WSW,252,1.0,10.0,80,0.00,,---,0.00,VWS V14.01,2013-01-18 00:25:00,
2013-01-17 19:31:00,60.1,53.6,30.06,West,264,3.0,10.0,79,0.00,,---,0.00,VWS V14.01,2013-01-18 00:31:00,
2013-01-17 19:36:00,60.2,53.3,30.06,South,174,2.0,3.0,78,0.00,,---,0.00,VWS V14.01,2013-01-18 00:36:00,
2013-01-17 19:41:00,60.3,52.7,30.06,NE,36,2.0,7.0,76,0.00,,---,0.00,VWS V14.01,2013-01-18 00:41:00,
2013-01-17 19:46:00,60.4,52.5,30.06,East,79,1.0,7.0,75,0.00,,---,0.00,VWS V14.01,2013-01-18 00:46:00,
2013-01-17 19:51:00,60.5,51.8,30.06,South,183,0.0,11.0,73,0.00,,---,0.00,VWS V14.01,2013-01-18 00:51:00,
2013-01-17 19:56:00,60.4,52.1,30.06,WNW,302,3.0,11.0,74,0.00,,---,0.00,VWS V14.01,2013-01-18 00:56:00,
2013-01-17 20:01:00,60.2,51.5,30.06,West,260,4.0,11.0,73,0.00,,---,0.00,VWS V14.01,2013-01-18 01:01:00,
2013-01-17 20:06:00,60.2,51.5,30.07,West,263,2.0,7.0,73,0.00,,---,0.00,VWS V14.01,2013-01-18 01:06:00,
2013-01-17 20:11:00,60.1,51.8,30.07,NE,45,1.0,7.0,74,0.00,,---,0.00,VWS V14.01,2013-01-18 01:11:00,
2013-01-17 20:16:00,60.0,51.7,30.06,West,266,3.0,8.0,74,0.00,,---,0.00,VWS V14.01,2013-01-18 01:16:00,
2013-01-17 20:21:00,59.8,51.9,30.07,West,261,1.0,8.0,75,0.00,,---,0.00,VWS V14.01,2013-01-18 01:21:00,
2013-01-17 20:26:00,59.7,52.1,30.07,SSE,156,0.0,8.0,76,0.00,,---,0.00,VWS V14.01,2013-01-18 01:26:00,
2013-01-17 20:31:00,59.6,52.0,30.07,South,186,1.0,8.0,76,0.00,,---,0.00,VWS V14.01,2013-01-18 01:31:00,
2013-01-17 20:36:00,59.4,51.8,30.07,NNW,328,4.0,4.0,76,0.00,,---,0.00,VWS V14.01,2013-01-18 01:36:00,
2013-01-17 20:41:00,59.3,51.4,30.07,SW,230,1.0,6.0,75,0.00,,---,0.00,VWS V14.01,2013-01-18 01:41:00,
2013-01-17 20:46:00,59.2,51.3,30.07,SE,138,0.0,7.0,75,0.00,,---,0.00,VWS V14.01,2013-01-18 01:46:00,
2013-01-17 20:51:00,59.1,51.2,30.08,NW,325,3.0,9.0,75,0.00,,---,0.00,VWS V14.01,2013-01-18 01:51:00,
2013-01-17 20:56:00,59.1,51.2,30.07,NNW,333,1.0,9.0,75,0.00,,---,0.00,VWS V14.01,2013-01-18 01:56:00,
2013-01-17 21:01:00,59.0,51.1,30.07,ENE,59,1.0,9.0,75,0.00,,---,0.00,VWS V14.01,2013-01-18 02:01:00,
2013-01-17 21:06:00,59.0,50.7,30.08,WSW,256,1.0,8.0,74,0.00,,---,0.00,VWS V14.01,2013-01-18 02:06:00,
2013-01-17 21:12:00,59.1,50.1,30.07,WNW,288,2.0,8.0,72,0.00,,---,0.00,VWS V14.01,2013-01-18 02:12:00,
2013-01-17 21:17:00,59.2,49.4,30.08,NW,321,1.0,8.0,70,0.00,,---,0.00,VWS V14.01,2013-01-18 02:17:00,
2013-01-17 21:22:00,59.2,49.0,30.08,NNW,328,3.0,11.0,69,0.00,,---,0.00,VWS V14.01,2013-01-18 02:22:00,
2013-01-17 21:27:00,59.1,49.3,30.08,NNW,334,1.0,11.0,70,0.00,,---,0.00,VWS V14.01,2013-01-18 02:27:00,
2013-01-17 21:32:00,58.9,49.2,30.08,NW,316,1.0,2.0,70,0.00,,---,0.00,VWS V14.01,2013-01-18 02:32:00,
2013-01-17 21:37:00,58.8,49.4,30.08,WSW,256,2.0,4.0,71,0.00,,---,0.00,VWS V14.01,2013-01-18 02:37:00,
2013-01-17 21:42:00,58.7,49.3,30.08,NW,321,1.0,6.0,71,0.00,,---,0.00,VWS V14.01,2013-01-18 02:42:00,
2013-01-17 21:47:00,58.6,49.2,30.08,ENE,63,1.0,6.0,71,0.00,,---,0.00,VWS V14.01,2013-01-18 02:47:00,
2013-01-17 21:52:00,58.5,49.5,30.08,SSE,163,1.0,6.0,72,0.00,,---,0.00,VWS V14.01,2013-01-18 02:52:00,
2013-01-17 21:57:00,58.4,49.4,30.08,NW,310,1.0,6.0,72,0.00,,---,0.00,VWS V14.01,2013-01-18 02:57:00,
2013-01-17 22:02:00,58.2,49.2,30.08,West,271,2.0,3.0,72,0.00,,---,0.00,VWS V14.01,2013-01-18 03:02:00,
2013-01-17 22:07:00,58.0,49.4,30.08,WSW,242,0.0,5.0,73,0.00,,---,0.00,VWS V14.01,2013-01-18 03:07:00,
2013-01-17 22:12:00,57.7,49.5,30.08,NE,47,2.0,5.0,74,0.00,,---,0.00,VWS V14.01,2013-01-18 03:12:00,
2013-01-17 22:17:00,57.5,49.3,30.08,ENE,75,4.0,13.0,74,0.00,,---,0.00,VWS V14.01,2013-01-18 03:17:00,
2013-01-17 22:23:00,57.3,49.1,30.09,WNW,286,1.0,13.0,74,0.00,,---,0.00,VWS V14.01,2013-01-18 03:23:00,
2013-01-17 22:28:00,57.2,49.0,30.09,NW,319,0.0,13.0,74,0.00,,---,0.00,VWS V14.01,2013-01-18 03:28:00,
2013-01-17 22:33:00,57.0,48.8,30.09,WSW,245,0.0,2.0,74,0.00,,---,0.00,VWS V14.01,2013-01-18 03:33:00,
2013-01-17 22:38:00,56.8,49.0,30.09,WNW,288,2.0,10.0,75,0.00,,---,0.00,VWS V14.01,2013-01-18 03:38:00,
2013-01-17 22:43:00,56.7,48.9,30.09,East,100,4.0,10.0,75,0.00,,---,0.00,VWS V14.01,2013-01-18 03:43:00,
2013-01-17 22:48:00,56.5,49.0,30.09,NNW,342,0.0,10.0,76,0.00,,---,0.00,VWS V14.01,2013-01-18 03:48:00,
2013-01-17 22:53:00,56.3,48.8,30.09,WSW,238,2.0,10.0,76,0.00,,---,0.00,VWS V14.01,2013-01-18 03:53:00,
2013-01-17 22:58:00,56.2,49.1,30.09,West,260,7.0,10.0,77,0.00,,---,0.00,VWS V14.01,2013-01-18 03:58:00,
2013-01-17 23:03:00,56.0,48.9,30.09,SW,222,2.0,6.0,77,0.00,,---,0.00,VWS V14.01,2013-01-18 04:03:00,
2013-01-17 23:08:00,55.9,49.2,30.09,ENE,60,3.0,6.0,78,0.00,,---,0.00,VWS V14.01,2013-01-18 04:08:00,
2013-01-17 23:13:00,55.7,49.0,30.09,WSW,245,1.0,7.0,78,0.00,,---,0.00,VWS V14.01,2013-01-18 04:13:00,
2013-01-17 23:18:00,55.6,48.9,30.09,West,269,1.0,7.0,78,0.00,,---,0.00,VWS V14.01,2013-01-18 04:18:00,
2013-01-17 23:23:00,55.4,49.0,30.09,West,273,0.0,7.0,79,0.00,,---,0.00,VWS V14.01,2013-01-18 04:23:00,
2013-01-17 23:28:00,55.3,48.9,30.09,SE,139,0.0,7.0,79,0.00,,---,0.00,VWS V14.01,2013-01-18 04:28:00,
2013-01-17 23:33:00,55.2,48.8,30.09,WNW,293,0.0,2.0,79,0.00,,---,0.00,VWS V14.01,2013-01-18 04:33:00,
2013-01-17 23:38:00,55.2,48.8,30.09,SW,225,4.0,5.0,79,0.00,,---,0.00,VWS V14.01,2013-01-18 04:38:00,
2013-01-17 23:44:00,55.1,48.7,30.09,West,266,0.0,5.0,79,0.00,,---,0.00,VWS V14.01,2013-01-18 04:44:00,
2013-01-17 23:49:00,55.1,48.7,30.09,NW,307,0.0,5.0,79,0.00,,---,0.00,VWS V14.01,2013-01-18 04:49:00,
2013-01-17 23:54:00,54.9,48.5,30.09,WSW,243,0.0,5.0,79,0.00,,---,0.00,VWS V14.01,2013-01-18 04:54:00,
2013-01-17 23:59:00,54.8,48.4,30.09,West,262,0.0,5.0,79,0.00,,---,0.00,VWS V14.01,2013-01-18 04:59:00,